Log Lane Village, CO

10:51 AM MDT on August 24, 2016 (GMT -0600)
Fort Morgan

Weather History for KFMM - March, 2013

Change the Weather History Date:

Sunday, March 17, 2013

  Actual Average (KAKO) Record (KAKO)
Temperature  
Mean Temperature 44 °F 40 °F  
Max Temperature 61 °F 53 °F 78 °F (2012)
Min Temperature 27 °F 26 °F -4 °F (1958)
Degree Days  
Heating Degree Days 21    
Month to date heating degree days  
Cooling Degree Days 0    
Month to date cooling degree days  
Moisture  
Dew Point 24 °F    
Average Humidity 58    
Maximum Humidity 94    
Minimum Humidity 23    
Precipitation  
Precipitation 0.00 in 0.02 in 0.39 in (1961)
Month to date precipitation 0.40  
Year to date precipitation 1.14  
Sea Level Pressure  
Sea Level Pressure 29.67 in    
Wind  
Wind Speed 9 mph (WNW)    
Max Wind Speed 43 mph    
Max Gust Speed 50 mph    
Visibility 10 miles    
Events      
T = Trace of Precipitation, MM = Missing Value Source: NWS Daily Summary

Daily Weather History Graph

Daily Weather History Graph

Search for Another Location

Airport or City:

Trip Planner

Search our weather history database for the weather conditions in past years. The results will help you decide how hot, cold, wet, or windy it might be!

Date:

Astronomy

Mar. 17, 2013 Rise Set
Actual Time 7:03 AM MDT 7:04 PM MDT
Civil Twilight 6:35 AM MDT 7:31 PM MDT
Nautical Twilight 6:04 AM MDT 8:03 PM MDT
Astronomical Twilight 5:32 AM MDT 8:35 PM MDT
Moon 10:16 AM MDT (3/17) 12:15 AM MDT (3/17)
Length of Visible Light 12h 55m
Length of Day
12h 01m
Waxing Crescent, 32% of the Moon is Illuminated
Mar 17
Waxing Crescent
Mar 19
First Quarter
Mar 27
Full
Apr 2
Last Quarter
Apr 10
New

Hourly Weather History & Observations

Time (MDT) Temp. Windchill Dew Point Humidity Pressure Visibility Wind Dir Wind Speed Gust Speed Precip Events Conditions
12:15 AM 35.6 °F 30.7 °F 31.8 °F 86% 29.81 in 10.0 mi SSE 5.8 mph - N/A   Clear
12:35 AM 34.7 °F 31.8 °F 31.5 °F 88% 29.81 in 10.0 mi South 3.5 mph - N/A   Clear
12:55 AM 34.7 °F - 31.8 °F 89% 29.81 in 10.0 mi Calm Calm - N/A   Clear
1:15 AM 33.1 °F 28.7 °F 30.4 °F 90% 29.80 in 10.0 mi East 4.6 mph - N/A   Clear
1:35 AM 32.0 °F 27.5 °F 30.6 °F 94% 29.80 in 10.0 mi East 4.6 mph - N/A   Clear
1:55 AM 30.9 °F - 28.9 °F 92% 29.80 in 10.0 mi Calm Calm - N/A   Clear
2:15 AM 31.8 °F - 28.8 °F 88% 29.78 in 10.0 mi Calm Calm - N/A   Clear
2:35 AM 32.4 °F 26.9 °F 28.2 °F 85% 29.78 in 10.0 mi East 5.8 mph - N/A   Clear
2:55 AM 30.4 °F 23.6 °F 27.9 °F 90% 29.77 in 10.0 mi East 6.9 mph - N/A   Clear
3:15 AM 28.4 °F 20.4 °F 26.1 °F 91% 29.77 in 10.0 mi ENE 8.1 mph - N/A   Clear
3:35 AM 28.4 °F 21.2 °F 26.1 °F 91% 29.77 in 10.0 mi ENE 6.9 mph - N/A   Clear
3:55 AM 28.0 °F 22.8 °F 25.7 °F 91% 29.76 in 10.0 mi ENE 4.6 mph - N/A   Clear
4:15 AM 28.4 °F - 24.4 °F 85% 29.74 in 10.0 mi Calm Calm - N/A   Clear
4:35 AM 29.5 °F - 25.5 °F 85% 29.73 in 10.0 mi Calm Calm - N/A   Clear
4:55 AM 27.7 °F 22.4 °F 24.8 °F 89% 29.73 in 10.0 mi ESE 4.6 mph - N/A   Clear
5:15 AM 30.2 °F - 26.1 °F 85% 29.73 in 10.0 mi Calm Calm - N/A   Clear
5:35 AM 30.2 °F - 26.2 °F 85% 29.72 in 10.0 mi Calm Calm - N/A   Clear
5:55 AM 28.4 °F 23.3 °F 24.3 °F 84% 29.71 in 10.0 mi ESE 4.6 mph - N/A   Clear
6:15 AM 27.5 °F 21.1 °F 24.6 °F 89% 29.70 in 10.0 mi ENE 5.8 mph - N/A   Clear
6:35 AM 28.4 °F 22.2 °F 25.5 °F 89% 29.69 in 10.0 mi SE 5.8 mph - N/A   Clear
6:55 AM 28.0 °F - 24.8 °F 88% 29.70 in 10.0 mi Calm Calm - N/A   Clear
7:15 AM 28.0 °F 22.8 °F 25.2 °F 89% 29.68 in 10.0 mi ENE 4.6 mph - N/A   Clear
7:35 AM 27.5 °F 21.1 °F 25.2 °F 91% 29.68 in 10.0 mi ENE 5.8 mph - N/A   Clear
7:55 AM 28.4 °F 23.3 °F 26.2 °F 92% 29.66 in 10.0 mi East 4.6 mph - N/A   Clear
8:15 AM 32.0 °F 28.7 °F 28.2 °F 86% 29.66 in 10.0 mi SE 3.5 mph - N/A   Clear
8:35 AM 32.4 °F 29.1 °F 29.1 °F 88% 29.66 in 10.0 mi ESE 3.5 mph - N/A   Clear
8:55 AM 34.3 °F - 30.7 °F 87% 29.66 in 10.0 mi Calm Calm - N/A   Clear
9:15 AM 37.0 °F 34.5 °F 31.1 °F 79% 29.66 in 10.0 mi South 3.5 mph - N/A   Clear
9:35 AM 39.2 °F 37.0 °F 31.1 °F 73% 29.66 in 10.0 mi South 3.5 mph - N/A   Clear
9:55 AM 39.7 °F 37.6 °F 31.1 °F 71% 29.65 in 10.0 mi SW 3.5 mph - N/A   Scattered Clouds
10:15 AM 40.3 °F 37.1 °F 30.7 °F 69% 29.63 in 10.0 mi SW 4.6 mph - N/A   Scattered Clouds
10:35 AM 41.7 °F 38.8 °F 31.3 °F 66% 29.63 in 10.0 mi WSW 4.6 mph - N/A   Mostly Cloudy
10:55 AM 42.8 °F 40.1 °F 32.0 °F 66% 29.62 in 10.0 mi West 4.6 mph - N/A   Mostly Cloudy
11:15 AM 44.8 °F 41.0 °F 32.0 °F 61% 29.62 in 10.0 mi West 6.9 mph - N/A   Scattered Clouds
11:35 AM 43.9 °F 42.3 °F 31.3 °F 61% 29.61 in 10.0 mi WSW 3.5 mph - N/A   Scattered Clouds
11:55 AM 44.6 °F 43.1 °F 31.1 °F 59% 29.61 in 10.0 mi SW 3.5 mph - N/A   Scattered Clouds
12:15 PM 45.1 °F 42.8 °F 31.6 °F 59% 29.59 in 10.0 mi SSW 4.6 mph - N/A   Scattered Clouds
12:35 PM 46.9 °F - 31.8 °F 56% 29.59 in 10.0 mi South 4.6 mph - N/A   Clear
12:55 PM 48.0 °F - 31.3 °F 52% 29.57 in 10.0 mi Calm Calm - N/A   Clear
1:15 PM 49.8 °F - 30.4 °F 47% 29.55 in 10.0 mi Calm Calm - N/A   Clear
1:35 PM 53.1 °F - 31.3 °F 43% 29.55 in 10.0 mi South 5.8 mph - N/A   Clear
1:55 PM 55.8 °F - 30.0 °F 37% 29.54 in 10.0 mi Calm Calm - N/A   Clear
2:15 PM 58.5 °F - 27.9 °F 31% 29.53 in 10.0 mi NNW 6.9 mph - N/A   Clear
2:35 PM 59.4 °F - 26.2 °F 28% 29.52 in 10.0 mi WSW 5.8 mph - N/A   Clear
2:55 PM 61.0 °F - 25.3 °F 26% 29.52 in 10.0 mi West 5.8 mph - N/A   Clear
3:15 PM 61.0 °F - 24.6 °F 25% 29.51 in 10.0 mi West 17.3 mph 24.2 mph N/A   Scattered Clouds
3:35 PM 58.6 °F - 25.2 °F 28% 29.52 in 10.0 mi NW 26.5 mph 31.1 mph N/A   Mostly Cloudy
3:55 PM 59.5 °F - 23.4 °F 25% 29.53 in 10.0 mi NW 24.2 mph 32.2 mph N/A   Scattered Clouds
4:15 PM 55.0 °F - 23.5 °F 30% 29.54 in 10.0 mi NW 25.3 mph 34.5 mph N/A   Scattered Clouds
4:35 PM 56.8 °F - 22.1 °F 26% 29.56 in 10.0 mi WNW 42.6 mph 49.5 mph N/A   Scattered Clouds
4:55 PM 53.6 °F - 23.2 °F 31% 29.55 in 10.0 mi WNW 33.4 mph 47.2 mph N/A   Clear
5:15 PM 54.3 °F - 22.3 °F 29% 29.56 in 10.0 mi WNW 33.4 mph 43.7 mph N/A   Clear
5:35 PM 52.9 °F - 22.3 °F 30% 29.56 in 10.0 mi WNW 31.1 mph 40.3 mph N/A   Clear
5:55 PM 52.9 °F - 20.1 °F 28% 29.57 in 10.0 mi WNW 26.5 mph 43.7 mph N/A   Clear
6:15 PM 51.3 °F - 20.7 °F 30% 29.59 in 10.0 mi WNW 27.6 mph 34.5 mph N/A   Clear
6:35 PM 50.5 °F - 16.9 °F 26% 29.60 in 10.0 mi WNW 29.9 mph 36.8 mph N/A   Clear
6:55 PM 49.8 °F - 19.2 °F 30% 29.61 in 10.0 mi WNW 31.1 mph 39.1 mph N/A   Mostly Cloudy
7:15 PM 48.4 °F - 17.8 °F 30% 29.63 in 10.0 mi WNW 25.3 mph 35.7 mph N/A   Scattered Clouds
7:35 PM 47.8 °F - 16.7 °F 29% 29.64 in 10.0 mi WNW 24.2 mph 32.2 mph N/A   Mostly Cloudy
8:15 PM 43.0 °F 34.2 °F 14.2 °F 31% 29.69 in 10.0 mi NW 20.7 mph 29.9 mph N/A   Clear
8:35 PM 41.9 °F 31.9 °F 12.2 °F 30% 29.70 in 10.0 mi NW 25.3 mph 32.2 mph N/A   Clear
8:55 PM 41.0 °F 29.5 °F 5.9 °F 23% 29.72 in 10.0 mi NW 32.2 mph 41.4 mph N/A   Clear
9:15 PM 39.6 °F 27.3 °F 3.7 °F 23% 29.73 in 10.0 mi NW 33.4 mph 39.1 mph N/A   Clear
9:35 PM 37.8 °F 25.0 °F 5.9 °F 27% 29.74 in 10.0 mi NW 32.2 mph 39.1 mph N/A   Clear
9:55 PM 36.7 °F 23.6 °F 7.9 °F 30% 29.76 in 10.0 mi NNW 32.2 mph 40.3 mph N/A   Clear
10:15 PM 36.5 °F 22.7 °F 8.4 °F 31% 29.77 in 10.0 mi NNW 35.7 mph 43.7 mph N/A   Clear
10:35 PM 35.6 °F 22.1 °F 7.9 °F 32% 29.78 in 10.0 mi NNW 32.2 mph 42.6 mph N/A   Clear
10:55 PM 35.6 °F 21.7 °F 6.8 °F 30% 29.79 in 10.0 mi NW 34.5 mph 41.4 mph N/A   Clear
11:15 PM 35.6 °F 22.3 °F 6.1 °F 29% 29.81 in 10.0 mi NW 31.1 mph 42.6 mph N/A   Clear
11:35 PM 34.9 °F 20.5 °F 6.3 °F 30% 29.82 in 10.0 mi NW 35.7 mph 42.6 mph N/A   Clear
11:55 PM 32.4 °F 18.4 °F 14.4 °F 48% 29.83 in 10.0 mi NNW 28.8 mph 38.0 mph N/A   Clear